"Pseudo-MPEC" for P113q31

Created 2020 Aug 1 23:07:19 UT using Find_Orb

Click here for an explanation of pseudo-MPECs

 
 Astrometry: 
     P113q31  C2020 07 29hX2AKNhC7Astrometry(redacted;$jCclickt;!8w.N^$Gsa3DYF51
     P113q31  C2020 07 298qGq)BB1e@#mxm7r/l0`T9EY`rts6R)5Tsvv^;a/:UF3dlwJG6IZF51
     P113q31  C2020 07 29vvTJfsVobdI5;FtVb5eWj1D.XA3%26_.fm2SfC)-LHLl%h(DEL0CF51
     P113q31  C2020 07 295heHmQ8,_%yL2@oh#nu%@h*/J(.P8ReqgsHYa_Y3KS(9V_.QdNsHF51
     P113q31  C2020 07 307wPF(ixGoI5CqoVX.ilYBNrRgZ^Q/1S/*F7Mx^vGMsrvPQ*?wcK6F51
     P113q31  C2020 07 30H9p,DYxZ'\Zc3V_Z^3S4herec^?\[\R,r!yi-D%v\,Xq$A*5ZsmKF52
     P113q31  C2020 07 30-0/mjcyQ5*XbN[gJqN\hR#rg87:+bL(cpE![=,9YZN_FNu4[SaHkF51
     P113q31  C2020 07 30R=vn?l@!/7GL8(CxuV3$VrJ_G8tyvkQ9BFXh@4x1[J$=Gl#5pYa@F52
     P113q31  C2020 07 30r/3l/fiU\Qo?^)qJdAN[BPME@DY'Q6QxA/6#`.r%F!wp?rD;ON:oF51
     P113q31  C2020 07 30Lsvj%gv#A:xP*!j8NI^OUIsSIh\Q\Q#Vfor(n[Ij8D^jtBkZsgrIF52
     P113q31  C2020 07 30h'L;5u]qM?I*u+x0TBxlL8j\1WU4y6`:K6wC==FGlQW_BY]#c%r-F51
     P113q31  C2020 07 30]qra2X300?'VAs-APlcd)@jFFSbyq3K5N^Ha:XqZ9'U24v=Z9'=4F52
     P113q31  C2020 07 31K=ZApv@Bcl17*YyDkJX*R3q@c4UWorkt6%o`U5([:UeM.0?3h#?VF51
     P113q31  C2020 07 31t_?b:P1gA_WT=UDs%nOkA7U:JCriyF)scwItdE4uEBm!fmtl;#76F51
     P113q31  C2020 07 31olQsi#=CIF2Cexplanation?abdO]0q*e8w9^l=u)fg4_V7S:o'iF51

Station data:
(F51) Pan-STARRS 1, Haleakala  (N20.707235 W156.255910)  US/Hawaii.
   Observers N. Primak, A. Schultz, S. Watters, J. Thiel, T. Goggia. Measurer
   PS1 Science Consortium. 1.8-m Ritchey-Chrétien + CCD.
(F52) Pan-STARRS 2, Haleakala  (N20.707384 W156.255910)  US/Hawaii. 1.8-m
   Ritchey-Chrétien + CCD.

Orbital elements:  P113q31
   Perihelion 2020 Oct 29.763404 +/- 12 TT = 18:19:18 (JD 2459152.263404)
Epoch 2020 Jul 31.0 TT = JDT 2459061.5   Earth MOID: 0.3071   Ma: 0.0308
M 333.16951319 +/- 7                (J2000 ecliptic)          AutoNEOCP
n   0.29560908 +/- 0.0632           Peri.   12.76633 +/- 210
a   2.23181160 +/- 0.318            Node    12.08479 +/- 5.3
e   0.4162506 +/- 0.0445            Incl.    7.54371 +/- 0.10
P   3.33                   H 21.8   G  0.15   U 10.9  
q 1.30281866 +/- 0.114    Q 3.16080454 +/- 0.704
From 15 observations 2020 July 29-31; mean residual 0".18
Residuals in arcseconds: 
200729 F51  .07+  .22-    200730 F52  .08-  .34+    200730 F51  .07+  .04+    
200729 F51  .19-  .27-    200730 F51  .28+  .22+    200730 F52  .24-  .40-    
200729 F51  .14+  .11+    200730 F52  .12-  .14-    200731 F51  .06+  .05-    
200729 F51  .02+  .19+    200730 F51  .17+  .15-    200731 F51  .06+  .13-    
200730 F51  .09+  .02+    200730 F52  .03-  .38+    200731 F51  .08-  .02+    

Ephemerides (geocentric):
Date (UTC) HH   RA              Dec         delta   r     elong  mag " sig PA
---- -- -- --  -------------   -----------  ------ ------ -----  --- ---- ---
2020 08 01 23  23 30 50.515   -18 58 32.26  .61444 1.5448 141.7 22.8 2.32  32
2020 08 02 00  23 30 52.297   -18 58 26.16  .61409 1.5446 141.7 22.8 2.38  32
2020 08 02 01  23 30 54.076   -18 58 20.07  .61375 1.5444 141.8 22.8 2.44  32
2020 08 02 02  23 30 55.852   -18 58 13.97  .61340 1.5442 141.8 22.8 2.49  32
2020 08 02 03  23 30 57.624   -18 58 07.87  .61305 1.5440 141.8 22.8 2.55  33
2020 08 02 04  23 30 59.393   -18 58 01.77  .61271 1.5438 141.9 22.8 2.61  33
2020 08 02 05  23 31 01.159   -18 57 55.67  .61236 1.5436 141.9 22.8 2.67  33
2020 08 02 06  23 31 02.922   -18 57 49.57  .61202 1.5434 141.9 22.8 2.73  33
2020 08 02 07  23 31 04.682   -18 57 43.46  .61167 1.5432 141.9 22.8 2.79  33
2020 08 02 08  23 31 06.438   -18 57 37.35  .61133 1.5430 142.0 22.8 2.86  33
2020 08 02 09  23 31 08.191   -18 57 31.24  .61098 1.5428 142.0 22.8 2.92  34
2020 08 02 10  23 31 09.941   -18 57 25.13  .61064 1.5426 142.0 22.8 2.98  34
2020 08 02 11  23 31 11.688   -18 57 19.02  .61029 1.5424 142.1 22.8 3.05  34
2020 08 02 12  23 31 13.431   -18 57 12.90  .60995 1.5422 142.1 22.8 3.12  34
2020 08 02 13  23 31 15.171   -18 57 06.78  .60960 1.5420 142.1 22.8 3.18  34
2020 08 02 14  23 31 16.908   -18 57 00.66  .60926 1.5418 142.2 22.8 3.25  34
2020 08 02 15  23 31 18.642   -18 56 54.54  .60892 1.5417 142.2 22.8 3.32  34
2020 08 02 16  23 31 20.373   -18 56 48.41  .60857 1.5415 142.2 22.8 3.39  34
2020 08 02 17  23 31 22.100   -18 56 42.28  .60823 1.5413 142.2 22.8 3.46  34
2020 08 02 18  23 31 23.824   -18 56 36.15  .60789 1.5411 142.3 22.8 3.53  34
2020 08 02 19  23 31 25.545   -18 56 30.02  .60754 1.5409 142.3 22.8 3.61  35
2020 08 02 20  23 31 27.263   -18 56 23.89  .60720 1.5407 142.3 22.8 3.68  35
2020 08 02 21  23 31 28.977   -18 56 17.75  .60686 1.5405 142.4 22.8 3.75  35
2020 08 02 22  23 31 30.688   -18 56 11.61  .60652 1.5403 142.4 22.8 3.83  35
2020 08 02 23  23 31 32.396   -18 56 05.47  .60617 1.5401 142.4 22.8 3.90  35
2020 08 03 00  23 31 34.100   -18 55 59.33  .60583 1.5399 142.4 22.8 3.98  35
2020 08 03 01  23 31 35.802   -18 55 53.18  .60549 1.5397 142.5 22.8 4.06  35
2020 08 03 02  23 31 37.500   -18 55 47.03  .60515 1.5395 142.5 22.8 4.14  35
2020 08 03 03  23 31 39.195   -18 55 40.88  .60481 1.5393 142.5 22.8 4.22  35
2020 08 03 04  23 31 40.886   -18 55 34.73  .60447 1.5391 142.6 22.8 4.30  35
2020 08 03 05  23 31 42.574   -18 55 28.57  .60413 1.5389 142.6 22.8 4.38  35
2020 08 03 06  23 31 44.259   -18 55 22.41  .60379 1.5388 142.6 22.8 4.46  35
2020 08 03 07  23 31 45.941   -18 55 16.25  .60345 1.5386 142.7 22.8 4.54  35
2020 08 03 08  23 31 47.619   -18 55 10.08  .60311 1.5384 142.7 22.8 4.63  35
2020 08 03 09  23 31 49.294   -18 55 03.92  .60277 1.5382 142.7 22.8 4.71  35
2020 08 03 10  23 31 50.966   -18 54 57.75  .60243 1.5380 142.7 22.8 4.80  35
2020 08 03 11  23 31 52.635   -18 54 51.58  .60209 1.5378 142.8 22.8 4.89  35
2020 08 03 12  23 31 54.300   -18 54 45.40  .60175 1.5376 142.8 22.8 4.97  35
2020 08 03 13  23 31 55.962   -18 54 39.22  .60141 1.5374 142.8 22.7 5.06  35
2020 08 03 14  23 31 57.620   -18 54 33.04  .60107 1.5372 142.9 22.7 5.15  35
2020 08 03 15  23 31 59.276   -18 54 26.86  .60073 1.5370 142.9 22.7 5.24  35
2020 08 03 16  23 32 00.928   -18 54 20.67  .60039 1.5368 142.9 22.7 5.33  35
2020 08 03 17  23 32 02.576   -18 54 14.48  .60005 1.5366 142.9 22.7 5.42  35
2020 08 03 18  23 32 04.222   -18 54 08.29  .59972 1.5364 143.0 22.7 5.52  35
2020 08 03 19  23 32 05.864   -18 54 02.09  .59938 1.5362 143.0 22.7 5.61  35
2020 08 03 20  23 32 07.503   -18 53 55.90  .59904 1.5361 143.0 22.7 5.70  35
2020 08 03 21  23 32 09.138   -18 53 49.70  .59870 1.5359 143.1 22.7 5.80  34
2020 08 03 22  23 32 10.770   -18 53 43.49  .59836 1.5357 143.1 22.7 5.90  34